Location: Baller�as
(41.9020°N, 0.1554°W)
Time: 12:10:59
(UTC+00:00)

IRIDIUM 103 - Pass Details

Date: 10 August 2020
Orbit: 776 x 779 km, 86.4° (Epoch: 21 September)

Event Time Altitude Azimuth Distance (km) Brightness Sun altitude
Rises 20:14:21 0° 182° (S) 3,247 7.2 -11.9°
Reaches altitude 10° 20:16:41 10° 183° (S) 2,324 6.5 -12.3°
Maximum altitude 20:21:54 85° 271° (W) 789 4.4 -13.1°
Drops below altitude 10° 20:27:10 10° 2° (N) 2,341 7.3 -13.9°
Sets 20:29:32 0° 3° (N) 3,273 8.1 -14.2°
